Weather History for KCAG - April, 2013

Change the Weather History Date:

Sunday, April 7, 2013

  Actual Average Record
Temperature  
Mean Temperature 45 °F 40 °F  
Max Temperature 59 °F 55 °F 71 °F (2005)
Min Temperature 30 °F 26 °F 9 °F (2012)
Degree Days  
Heating Degree Days 20 24  
Month to date heating degree days 140 177  
Since 1 July heating degree days 7490 7515  
Cooling Degree Days 0 0  
Month to date cooling degree days 0 0  
Year to date cooling degree days 0 0  
Moisture  
Dew Point 30 °F    
Average Humidity 62    
Maximum Humidity 92    
Minimum Humidity 32    
Precipitation  
Precipitation 0.03 in 0.04 in 0.23 in (2008)
Month to date precipitation 0.55 0.31  
Year to date precipitation 2.26 3.30  
Sea Level Pressure  
Sea Level Pressure 29.85 in    
Wind  
Wind Speed 8 mph (SW)    
Max Wind Speed 29 mph    
Max Gust Speed 38 mph    
Visibility 7 miles    
Events Fog    
T = Trace of Precipitation, MM = Missing Value Source: NWS Daily Summary

Daily Weather History Graph

Daily Weather History Graph

Search for Another Location

Airport or City:

Trip Planner

Search our weather history database for the weather conditions in past years. The results will help you decide how hot, cold, wet, or windy it might be!

Date:

Astronomy

Apr. 07, 2013 Rise Set
Actual Time 6:43 AM MDT 7:41 PM MDT
Civil Twilight 6:15 AM MDT 8:09 PM MDT
Nautical Twilight 5:42 AM MDT 8:42 PM MDT
Astronomical Twilight 5:08 AM MDT 9:16 PM MDT
Moon 5:03 AM MDT (4/7) 5:16 PM MDT (4/7)
Length of Visible Light 13h 53m
Length of Day
12h 57m
Waning Crescent, 8% of the Moon is Illuminated
Apr 7
Waning Crescent
Apr 10
New
Apr 18
First Quarter
Apr 25
Full
May 2
Last Quarter

Hourly Weather History & Observations

Time (MDT) Temp. Windchill Dew Point Humidity Pressure Visibility Wind Dir Wind Speed Gust Speed Precip Events Conditions
12:53 AM 37.0 °F - 34.0 °F 89% 29.95 in 10.0 mi Calm Calm - N/A   Mostly Cloudy
1:53 AM 37.9 °F - 32.0 °F 79% 29.91 in 10.0 mi Calm Calm - N/A   Partly Cloudy
2:53 AM 35.1 °F 30.1 °F 32.0 °F 89% 29.92 in 10.0 mi East 5.8 mph - N/A   Clear
3:53 AM 34.0 °F - 30.9 °F 89% 29.89 in 10.0 mi Calm Calm - N/A   Clear
4:53 AM 33.1 °F - 30.0 °F 89% 29.90 in 10.0 mi Calm Calm - N/A   Mostly Cloudy
5:42 AM 32.0 °F 27.5 °F 30.2 °F 93% 29.96 in 4.0 mi SSW 4.6 mph - N/A   Scattered Clouds
5:48 AM 32.0 °F 28.7 °F 28.4 °F 87% 29.96 in 2.0 mi SW 3.5 mph - N/A   Mostly Cloudy
5:53 AM 32.0 °F 28.7 °F 30.0 °F 92% 29.91 in 1.8 mi SW 3.5 mph - N/A   Mostly Cloudy
5:56 AM 32.0 °F 28.7 °F 30.2 °F 93% 29.96 in 2.0 mi SW 3.5 mph - N/A   Scattered Clouds
6:05 AM 32.0 °F - 30.2 °F 93% 29.96 in 3.0 mi Calm Calm - N/A   Scattered Clouds
6:15 AM 30.2 °F 26.7 °F 28.4 °F 93% 29.96 in 1.8 mi SW 3.5 mph - N/A   Scattered Clouds
6:33 AM 32.0 °F - 28.4 °F 87% 29.96 in 0.8 mi Calm Calm - N/A   Mostly Cloudy
6:39 AM 30.2 °F - 28.4 °F 93% 29.95 in 1.0 mi Calm Calm - N/A   Mostly Cloudy
6:49 AM 32.0 °F 28.7 °F 28.4 °F 87% 29.95 in 2.0 mi SE 3.5 mph - N/A   Mostly Cloudy
6:53 AM 32.0 °F - 28.9 °F 88% 29.91 in 7.0 mi Calm Calm - N/A   Mostly Cloudy
7:00 AM 30.2 °F - 28.4 °F 93% 29.95 in 10.0 mi Calm Calm - N/A   Scattered Clouds
7:08 AM 30.2 °F - 28.4 °F 93% 29.94 in 1.0 mi Calm Calm - N/A   Mist
7:15 AM 30.2 °F - 28.4 °F 93% 29.94 in 0.2 mi Calm Calm - N/A Fog Light Freezing Fog
7:53 AM 32.0 °F - 30.9 °F 96% 29.92 in 0.2 mi Calm Calm - N/A Fog Fog
8:16 AM 33.8 °F - 32.0 °F 93% 29.94 in 1.2 mi Calm Calm - N/A   Mostly Cloudy
8:20 AM 33.8 °F - 32.0 °F 93% 29.94 in 4.0 mi Calm Calm - N/A   Mostly Cloudy
8:27 AM 35.6 °F - 33.8 °F 93% 29.94 in 10.0 mi Calm Calm - N/A   Scattered Clouds
8:53 AM 37.9 °F - 34.0 °F 86% 29.91 in 10.0 mi Calm Calm - N/A   Clear
9:53 AM 44.1 °F 39.5 °F 34.0 °F 68% 29.88 in 10.0 mi ENE 8.1 mph - N/A   Mostly Cloudy
10:53 AM 45.0 °F 42.6 °F 34.0 °F 65% 29.90 in 10.0 mi NNW 4.6 mph - N/A   Overcast
11:53 AM 48.0 °F - 33.1 °F 56% 29.85 in 10.0 mi Calm Calm - 0.02 in   Overcast
12:53 PM 50.0 °F - 32.0 °F 50% 29.81 in 10.0 mi WSW 8.1 mph - 0.01 in   Mostly Cloudy
1:53 PM 53.1 °F - 28.9 °F 40% 29.75 in 10.0 mi West 17.3 mph 25.3 mph N/A   Partly Cloudy
2:53 PM 55.9 °F - 27.0 °F 33% 29.70 in 10.0 mi West 27.6 mph 35.7 mph N/A   Scattered Clouds
3:53 PM 55.9 °F - 26.1 °F 32% 29.69 in 10.0 mi WSW 25.3 mph 38.0 mph N/A   Scattered Clouds
4:53 PM 55.0 °F - 30.0 °F 38% 29.69 in 10.0 mi SW 24.2 mph 32.2 mph N/A   Mostly Cloudy
5:53 PM 55.9 °F - 27.0 °F 33% 29.68 in 10.0 mi WSW 11.5 mph 25.3 mph N/A   Clear
6:53 PM 51.1 °F - 28.0 °F 41% 29.69 in 10.0 mi SW 17.3 mph 27.6 mph N/A   Mostly Cloudy
7:53 PM 48.9 °F - 28.9 °F 46% 29.69 in 10.0 mi SSW 10.4 mph - N/A   Partly Cloudy
8:53 PM 46.0 °F 41.0 °F 30.0 °F 54% 29.69 in 10.0 mi SW 10.4 mph - N/A   Clear
9:53 PM 43.0 °F 37.2 °F 28.9 °F 58% 29.69 in 10.0 mi SSW 10.4 mph - N/A   Clear
10:53 PM 42.1 °F 40.2 °F 25.0 °F 51% 29.69 in 10.0 mi SW 3.5 mph - N/A   Clear
11:53 PM 39.0 °F 35.7 °F 28.0 °F 65% 29.66 in 10.0 mi East 4.6 mph - N/A   Clear